Wind_Speed
11 10 9 8 6 3 1 2 3 4 8 9 8 6 5 7 8 7 4 1 5 9 8 8 9 9 8 9 9 8 8 9 10 11 11 11 10 9 10 14 15 14 13
8 5 5 9 5 1 3 2 2 5 8 7 4 3 2 5 7 3 5 6 6 5 5 6 9 9 9 9 8 6 6 7 7 8 8 9 10 8 11 13 12 12 11
9 7 6 5 4 2 3 2 4 5 6 7 5 1 1 3 3 3 2 2 6 7 5 3 7 8 7 7 7 7 4 6 7 7 8 8 9 10 11 12 12 11 10
10 6 3 2 1 3 2 4 2 2 6 6 4 4 5 2 6 3 3 2 2 5 5 3 5 5 6 5 5 5 4 4 5 6 7 7 8 8 9 9 10 10 10
12 8 4 6 5 3 2 1 2 2 3 5 4 3 3 4 5 1 5 2 3 7 7 7 5 4 2 4 4 5 4 3 4 5 6 7 7 8 8 9 10 10 10
13 12 8 7 7 5 4 4 4 5 4 4 4 3 3 2 5 4 7 2 2 2 3 7 7 3 2 3 6 6 5 4 3 3 5 6 7 7 8 8 9 9 9
13 14 12 9 9 7 7 3 4 3 2 2 2 6 8 4 4 3 4 3 6 7 6 3 6 4 4 4 5 4 5 5 5 3 4 5 6 6 7 8 9 9 9
16 15 15 11 8 8 6 5 5 3 1 2 3 7 2 4 8 6 6 2 7 5 8 3 5 6 10 8 6 5 4 6 6 6 4 4 5 5 6 7 8 9 9
20 15 17 13 10 7 7 4 4 4 3 0 3 3 1 3 4 3 4 7 8 9 8 7 7 6 6 8 6 7 4 4 6 7 6 5 5 5 6 7 9 10 10
22 17 19 17 13 10 8 8 9 4 4 2 2 3 2 2 3 3 4 7 6 6 7 7 8 6 5 7 10 7 7 5 7 7 7 7 7 7 7 9 9 10 10
21 18 18 19 16 12 9 9 9 9 7 5 5 5 5 5 5 5 5 9 6 7 6 7 6 7 7 6 7 12 7 8 7 7 7 8 9 8 8 9 10 10 11
22 19 16 17 19 18 15 13 13 11 8 7 8 9 9 9 8 7 10 11 11 9 8 7 7 4 7 6 6 8 9 8 8 9 8 8 9 10 9 9 10 9 10
23 23 20 18 19 18 16 13 15 15 13 11 10 9 8 8 11 12 12 11 12 11 9 8 7 5 8 4 7 8 7 6 8 9 9 9 10 10 11 9 10 10 9
21 17 20 19 17 15 13 12 13 13 13 11 11 11 10 8 8 8 11 9 9 11 12 11 5 5 4 5 8 11 12 10 8 9 10 10 10 11 12 12 12 11 10
24 20 21 20 18 16 15 14 14 13 13 12 12 12 12 11 11 12 12 10 10 12 17 16 10 11 10 8 8 12 14 14 13 12 11 12 11 11 12 13 13 13 12
25 24 23 23 21 18 17 19 18 15 15 15 15 15 14 13 13 13 14 13 13 15 19 19 20 20 17 15 11 11 13 16 15 9 13 13 14 13 13 13 14 15 14
26 25 23 22 20 18 17 19 20 17 18 15 15 15 16 16 16 17 17 17 17 15 20 21 20 19 18 19 16 14 14 15 16 12 13 14 15 15 15 15 15 16 17
26 26 23 21 19 18 16 17 19 20 20 20 18 17 18 18 18 17 18 19 19 19 19 22 22 21 20 18 19 19 18 19 17 19 17 17 18 17 16 17 16 17 18
28 26 25 24 22 22 22 23 23 23 23 24 24 22 23 22 23 22 22 22 21 19 20 24 25 22 20 19 20 21 22 21 20 19 22 20 19 18 17 18 18 18 19
30 29 28 27 26 26 27 27 26 26 27 28 27 27 28 27 27 25 24 23 20 23 24 25 26 23 22 21 22 23 23 21 20 20 20 20 21 19 17 17 17 19 21
30 30 31 30 30 30 31 31 31 31 31 29 28 27 26 26 25 25 26 24 23 26 27 27 26 26 27 27 26 24 23 22 21 19 18 19 19 23 23 21 22 20 20
26 28 30 31 31 32 32 29 28 29 29 29 29 27 25 26 27 27 27 27 28 29 30 29 30 32 33 30 29 28 26 25 25 21 17 18 20 21 22 21 19 18 20
23 24 25 24 24 24 24 26 26 27 28 29 31 31 28 26 25 25 27 29 29 29 31 33 35 36 36 34 31 31 29 26 23 19 19 18 19 19 20 17 16 19 23
23 22 22 22 24 26 26 25 22 26 33 32 31 33 28 28 30 31 31 33 35 36 38 41 42 42 40 39 37 36 32 28 24 23 18 21 21 22 19 16 18 21 22
22 23 23 24 26 29 31 29 25 28 34 29 24 24 28 28 30 33 36 38 40 39 36 38 39 38 36 34 33 32 33 33 33 27 25 20 22 19 16 17 20 18 12
21 22 23 24 27 28 28 30 29 21 13 12 21 28 29 30 32 34 36 36 36 31 30 30 31 33 32 31 30 31 29 30 30 25 26 22 22 18 16 20 22 21 16
Wind_Direction
131 135 142 150 146 158 256 50 20 329 332 307 324 326 299 213 196 217 180 82 246 230 226 244 252 242 230 232 236 246 255 252 249 249 251 250 240 221 221 209 219 233 237
149 158 165 154 140 104 24 350 343 337 35 8 19 302 313 232 214 160 243 242 203 202 202 232 244 247 244 241 233 237 256 258 256 253 241 239 233 223 218 212 227 230 231
175 149 146 155 88 41 24 346 340 52 6 16 16 63 355 206 214 200 283 236 206 213 214 241 248 249 246 249 244 231 245 274 264 248 233 225 225 225 228 229 228 224 220
179 156 148 220 115 103 102 44 56 56 355 6 335 281 314 145 195 317 249 216 15 227 214 231 255 238 229 224 231 242 230 244 249 239 232 227 222 225 225 225 221 216 216
190 184 191 208 212 174 136 35 24 19 318 324 326 357 358 19 129 107 27 124 223 201 209 219 236 243 251 240 216 225 231 231 232 231 224 220 218 216 217 216 215 214 217
198 205 205 211 228 227 234 338 273 320 358 6 340 342 306 100 122 79 14 73 39 318 286 232 213 242 266 242 227 209 212 215 226 221 230 223 215 213 214 215 217 222 228
208 210 208 205 223 226 226 287 232 277 284 313 357 91 89 114 168 351 70 61 353 10 351 346 256 244 260 233 236 237 225 218 224 224 214 220 219 216 221 224 227 232 240
209 218 209 212 228 238 217 248 265 232 228 57 44 127 98 51 56 81 83 5 5 309 354 28 332 300 261 227 220 242 229 228 227 230 233 226 229 235 236 241 243 245 249
207 209 210 215 226 235 213 235 299 233 235 336 35 52 54 29 29 61 43 353 318 324 297 306 316 354 274 244 235 239 248 252 245 240 236 245 244 248 252 249 253 253 255
204 208 212 219 229 249 240 254 271 256 230 251 262 333 359 342 359 323 3 15 357 356 345 312 284 289 325 268 247 222 234 253 259 252 246 248 251 248 255 259 259 261 263
201 209 214 221 229 239 242 254 256 250 249 258 259 259 260 303 294 317 318 342 336 1 359 358 287 256 286 308 243 228 237 226 260 261 252 252 255 258 256 259 263 267 268
203 209 214 230 237 242 249 250 247 246 255 265 278 277 272 277 273 297 306 319 329 323 351 350 340 274 243 272 268 242 238 242 241 253 257 259 259 258 262 264 265 268 271
212 218 222 230 234 240 246 247 240 245 260 266 272 268 259 275 275 275 286 302 316 323 336 345 348 323 242 223 279 259 250 251 261 254 262 263 261 264 265 271 269 265 270
219 227 216 225 230 228 229 238 246 253 257 251 263 258 249 273 276 279 287 291 295 294 309 325 320 344 354 320 274 260 256 261 274 274 259 263 263 262 264 267 274 279 281
227 223 219 220 221 227 236 243 252 263 256 255 260 262 261 268 277 277 282 281 285 297 300 301 296 299 312 315 277 284 257 262 264 269 268 270 267 265 264 262 266 271 275
228 220 223 225 227 234 239 246 249 260 262 259 264 264 265 264 270 271 273 276 280 284 287 291 292 292 293 292 286 286 263 276 244 276 276 273 269 268 268 271 270 269 272
219 218 225 229 232 239 248 248 246 253 258 267 263 267 270 272 268 268 272 276 280 279 287 288 290 296 291 285 286 278 272 265 261 267 271 273 271 263 262 267 269 268 267
220 227 233 239 242 248 253 255 261 266 268 272 275 273 276 278 274 268 267 270 277 280 282 288 287 292 289 285 285 280 275 274 271 265 269 271 270 272 266 265 264 265 266
224 227 232 238 245 253 261 268 271 274 275 278 278 277 280 280 276 275 274 272 271 274 272 281 286 289 290 288 283 279 280 277 275 276 270 270 262 264 269 261 257 262 263
226 231 237 245 251 257 263 268 273 277 280 282 279 278 280 277 275 273 270 269 271 270 271 275 278 280 284 290 288 286 285 285 282 275 277 272 263 263 266 270 273 275 265
236 239 242 248 254 261 267 272 276 278 279 276 276 277 275 274 274 271 272 269 274 274 275 274 270 274 279 284 285 288 287 288 284 284 276 269 269 263 253 257 260 261 273
240 243 247 252 257 262 268 276 283 285 285 279 275 274 274 273 273 272 271 272 271 272 274 272 272 271 274 279 281 283 281 281 287 284 286 273 271 259 266 247 260 258 267
241 245 249 253 260 266 262 261 265 270 275 277 275 272 269 270 283 284 276 276 274 271 269 270 269 270 273 273 275 276 280 281 279 277 277 268 267 267 258 256 250 266 264
245 249 253 258 259 263 267 269 276 295 284 273 278 273 268 273 277 282 281 279 275 270 266 267 268 268 267 266 262 259 260 263 265 265 270 256 258 259 251 257 271 264 256
252 258 263 265 268 268 270 267 263 304 296 263 264 291 282 277 278 281 281 280 279 276 274 271 267 265 263 263 263 259 255 252 252 259 264 252 249 249 242 258 248 240 241
260 264 267 270 271 271 277 279 267 270 258 284 286 285 282 280 280 282 284 284 284 285 276 271 267 265 263 261 257 257 255 252 250 243 249 237 241 237 233 236 232 227 230
Height
1577 1578 1579 1579 1580 1582 1582 1583 1581 1580 1579 1579 1580 1578 1577 1576 1578 1576 1575 1575 1574 1575 1575 1577 1579 1577 1577 1578 1578 1578 1578 1579 1579 1579 1580 1581 1581 1581 1582 1584 1586 1587 1588
1577 1578 1579 1580 1581 1582 1582 1582 1581 1579 1578 1580 1579 1577 1576 1577 1576 1576 1575 1575 1575 1575 1574 1576 1577 1578 1577 1577 1577 1577 1577 1577 1577 1577 1578 1580 1580 1581 1582 1583 1584 1586 1587
1576 1578 1579 1580 1581 1582 1581 1582 1580 1580 1578 1579 1578 1577 1575 1576 1577 1576 1575 1574 1573 1573 1573 1574 1574 1575 1575 1576 1576 1575 1576 1576 1576 1576 1576 1578 1579 1580 1582 1583 1583 1584 1586
1577 1578 1579 1581 1581 1582 1582 1582 1581 1581 1580 1579 1578 1576 1575 1576 1575 1574 1575 1573 1572 1572 1573 1572 1573 1574 1574 1574 1575 1575 1575 1576 1576 1576 1576 1577 1577 1579 1580 1581 1582 1583 1585
1576 1578 1580 1581 1582 1582 1583 1582 1582 1582 1580 1579 1577 1575 1575 1575 1573 1574 1574 1573 1572 1571 1572 1571 1572 1573 1573 1572 1573 1573 1575 1575 1575 1576 1576 1577 1577 1578 1580 1580 1581 1583 1584
1575 1577 1579 1581 1581 1582 1582 1582 1581 1581 1580 1578 1577 1575 1574 1574 1574 1573 1573 1572 1573 1572 1571 1572 1571 1572 1571 1572 1573 1573 1573 1574 1575 1575 1576 1577 1577 1578 1579 1580 1581 1582 1583
1575 1576 1578 1579 1580 1580 1581 1581 1581 1580 1580 1578 1576 1575 1574 1574 1573 1572 1571 1572 1572 1572 1571 1572 1571 1571 1572 1572 1572 1572 1572 1573 1574 1575 1575 1576 1577 1577 1578 1579 1580 1581 1582
1573 1574 1576 1577 1578 1579 1580 1580 1579 1579 1579 1577 1575 1575 1575 1575 1574 1572 1571 1572 1572 1572 1573 1571 1570 1570 1571 1571 1571 1572 1571 1572 1573 1574 1575 1575 1575 1576 1577 1578 1579 1579 1580
1571 1573 1574 1576 1577 1577 1578 1579 1579 1578 1577 1577 1575 1575 1575 1575 1574 1574 1574 1574 1573 1572 1572 1571 1570 1569 1568 1570 1570 1571 1571 1571 1572 1573 1573 1574 1574 1574 1575 1576 1577 1577 1577
1569 1571 1572 1574 1575 1576 1577 1577 1578 1577 1576 1576 1576 1575 1574 1575 1574 1575 1574 1574 1573 1571 1570 1570 1569 1569 1568 1568 1569 1569 1570 1571 1572 1572 1572 1572 1573 1573 1574 1575 1575 1575 1575
1566 1568 1569 1571 1574 1575 1575 1576 1576 1576 1576 1576 1575 1574 1574 1574 1574 1574 1573 1573 1572 1571 1570 1569 1567 1568 1568 1568 1567 1568 1568 1569 1570 1571 1570 1571 1572 1572 1572 1573 1573 1574 1574
1563 1566 1567 1569 1571 1573 1574 1574 1574 1574 1574 1574 1574 1573 1573 1573 1573 1572 1572 1572 1571 1570 1569 1568 1567 1566 1567 1567 1568 1567 1567 1567 1568 1569 1569 1569 1570 1570 1570 1571 1571 1571 1571
1560 1563 1565 1567 1568 1570 1571 1571 1572 1572 1572 1572 1572 1572 1571 1571 1570 1570 1570 1570 1569 1568 1568 1567 1567 1565 1564 1565 1566 1567 1567 1567 1567 1567 1567 1567 1567 1568 1568 1569 1569 1569 1569
1557 1560 1562 1564 1566 1567 1568 1569 1569 1570 1570 1570 1570 1570 1570 1569 1569 1568 1569 1569 1568 1567 1566 1566 1566 1565 1565 1565 1564 1564 1565 1566 1565 1565 1565 1565 1564 1565 1565 1566 1567 1567 1567
1554 1557 1559 1561 1563 1565 1565 1566 1567 1567 1568 1568 1568 1568 1568 1568 1567 1567 1567 1567 1566 1565 1564 1563 1563 1563 1563 1563 1562 1561 1562 1562 1563 1563 1563 1563 1562 1562 1563 1563 1563 1564 1564
1550 1553 1556 1558 1560 1562 1563 1563 1564 1565 1565 1566 1566 1566 1565 1566 1566 1565 1564 1564 1563 1562 1560 1560 1559 1559 1559 1559 1560 1559 1559 1558 1559 1559 1559 1559 1559 1560 1560 1560 1560 1561 1562
1546 1549 1552 1554 1556 1557 1558 1559 1560 1562 1562 1563 1563 1563 1563 1563 1563 1562 1561 1560 1559 1559 1556 1554 1554 1554 1554 1554 1555 1555 1555 1555 1555 1556 1556 1556 1556 1556 1556 1556 1557 1558 1559
1542 1546 1549 1551 1552 1554 1555 1557 1559 1560 1559 1560 1561 1561 1561 1561 1559 1559 1558 1557 1555 1555 1553 1550 1549 1549 1548 1549 1549 1549 1550 1550 1550 1551 1551 1551 1552 1552 1552 1552 1553 1554 1555
1539 1542 1544 1546 1548 1551 1552 1553 1554 1555 1556 1556 1556 1557 1556 1557 1555 1555 1554 1553 1552 1551 1549 1547 1545 1545 1543 1543 1543 1543 1543 1544 1544 1544 1545 1545 1546 1546 1546 1547 1549 1551 1552
1534 1537 1540 1542 1544 1547 1548 1549 1550 1551 1551 1551 1550 1551 1551 1550 1549 1549 1548 1547 1547 1546 1545 1542 1541 1539 1539 1539 1537 1537 1537 1538 1537 1537 1538 1540 1540 1541 1541 1541 1543 1545 1546
1530 1533 1536 1538 1540 1542 1544 1545 1547 1547 1545 1545 1545 1545 1544 1544 1544 1544 1542 1541 1540 1539 1538 1537 1535 1534 1533 1533 1533 1533 1532 1532 1531 1531 1531 1533 1534 1535 1535 1536 1537 1538 1541
1525 1528 1531 1533 1535 1537 1540 1542 1543 1542 1541 1540 1538 1538 1537 1537 1537 1536 1535 1533 1534 1532 1532 1530 1529 1527 1527 1527 1527 1527 1526 1525 1524 1526 1525 1527 1528 1529 1529 1531 1533 1534 1535
1520 1522 1525 1527 1531 1532 1532 1531 1533 1534 1533 1533 1533 1532 1530 1529 1528 1527 1526 1525 1524 1525 1524 1524 1521 1521 1520 1520 1520 1519 1519 1519 1519 1521 1520 1520 1522 1523 1524 1526 1528 1529 1529
1515 1518 1520 1523 1524 1524 1525 1528 1528 1527 1524 1524 1524 1524 1522 1521 1520 1519 1517 1516 1515 1515 1515 1513 1511 1510 1509 1508 1509 1510 1511 1512 1513 1514 1515 1515 1516 1518 1520 1522 1523 1523 1524
1512 1514 1517 1519 1519 1518 1519 1521 1519 1515 1510 1508 1506 1513 1515 1514 1512 1510 1508 1506 1505 1504 1503 1501 1499 1498 1498 1499 1499 1499 1500 1503 1504 1507 1508 1509 1510 1512 1515 1517 1517 1519 1522
1506 1509 1510 1512 1512 1511 1513 1512 1512 1509 1506 1506 1503 1509 1508 1507 1504 1501 1498 1495 1492 1494 1490 1488 1488 1488 1488 1488 1489 1489 1492 1492 1495 1500 1502 1505 1505 1508 1510 1511 1512 1515 1518